sat.trackr.live / text

‹ back to catalog

STARLINK-35673

NORAD 66492 · 2025-263H

PAYLOAD ACTIVE UNKNOWN

§ Identity

Operator
Country
US
Launch date
2025-11-15
Launch site
AFETR
Launch vehicle
Mass (kg)
RCS (m²)

Purposes: comms

External: N2YO · Heavens-Above · Gunter

§ Orbital elements

Epoch: 2026-05-24T19:50:49.853760Z

Period
94.27 min
Inclination
43.0018°
Eccentricity
0.0001575
Mean motion
15.27598794 rev/d
Perigee alt
481.9 km
Apogee alt
484.1 km
Semi-major
6,861.1 km
B*
8.1286e-4
RAAN
280.6757°
Arg perigee
270.5148°
Mean anomaly
89.5524°
Rev number
3,054

§ Raw data

STARLINK-356731 66492U 25263H   26144.82696590  .00022186  00000+0  81286-3 0  99932 66492  43.0018 280.6757 0001575 270.5148  89.5524 15.27598794 30547

JSON: /api/v1/satellites/66492 · /tle

For live sub-satellite position, see the globe view (requires WebGL).

§ Visibility from observer

Set your observer location to see the next 7 days of passes ≥ 10°. The values pass through the URL so the page stays shareable.

No JS? Fill the form by hand. The geolocation button needs JavaScript.